Weather History for Torrington, WY

Change the Weather History Date:

Tuesday, August 19, 2014

  Actual Average Record
Temperature  
Mean Temperature 75 °F 71 °F  
Max Temperature 94 °F 87 °F 98 °F (2001)
Min Temperature 56 °F 55 °F 44 °F (2012)
Degree Days  
Heating Degree Days 0 0  
Month to date heating degree days 0 0  
Since 1 June heating degree days 85 81  
Since 1 July heating degree days 7 6  
Cooling Degree Days 10 7  
Month to date cooling degree days 160 155  
Year to date cooling degree days 496 571  
Since 1 June cooling degree days 480 553  
Growing Degree Days 25 (Base 50)    
Moisture  
Dew Point 51 °F    
Average Humidity 51    
Maximum Humidity 86    
Minimum Humidity 15    
Precipitation  
Precipitation 0.00 in 0.03 in 0.07 in (2004)
Month to date precipitation 0.59 0.96  
Year to date precipitation 12.05 10.65  
Sea Level Pressure  
Sea Level Pressure 29.72 in    
Wind  
Wind Speed 10 mph (SE)    
Max Wind Speed 26 mph    
Max Gust Speed 36 mph    
Visibility 10 miles    
Events      
T = Trace of Precipitation, MM = Missing Value Source: NWS Daily Summary

Daily Weather History Graph

Daily Weather History Graph

Search for Another Location

Airport:

Trip Planner

Search our weather history database for the weather conditions in past years. The results will help you decide how hot, cold, wet, or windy it might be!

Date:

Astronomy

Aug. 19, 2014 Rise Set
Actual Time 6:08 AM MDT 7:51 PM MDT
Civil Twilight 5:38 AM MDT 8:20 PM MDT
Nautical Twilight 5:02 AM MDT 8:56 PM MDT
Astronomical Twilight 4:23 AM MDT 9:35 PM MDT
Moon 1:00 AM MDT (8/19) 3:51 PM MDT (8/19)
Length of Visible Light 14h 41m
Length of Day
13h 42m
Waning Crescent, 28% of the Moon is Illuminated
Aug 19
Waning Crescent
Aug 25
New
Sep 2
First Quarter
Sep 8
Full
Sep 15
Last Quarter

Hourly Weather History & Observations

Time (MDT) Temp. Heat Index Dew Point Humidity Pressure Visibility Wind Dir Wind Speed Gust Speed Precip Events Conditions
12:53 AM 60.1 °F - 55.0 °F 83% 29.80 in 10.0 mi ENE 5.8 mph - N/A   Clear
1:53 AM 59.0 °F - 54.0 °F 83% 29.80 in 10.0 mi North - - N/A   Clear
2:53 AM 57.0 °F - 52.0 °F 83% 29.81 in 10.0 mi North - - N/A   Clear
3:53 AM 59.0 °F - 53.1 °F 81% 29.78 in 10.0 mi East 9.2 mph - N/A   Clear
4:53 AM 57.9 °F - 54.0 °F 87% 29.76 in 10.0 mi East 11.5 mph - N/A   Clear
5:53 AM 57.9 °F - 54.0 °F 87% 29.77 in 10.0 mi ESE 5.8 mph - N/A   Clear
6:53 AM 57.9 °F - 54.0 °F 87% 29.78 in 10.0 mi East 10.4 mph - N/A   Clear
7:53 AM 63.0 °F - 55.0 °F 75% 29.77 in 10.0 mi ESE 8.1 mph - N/A   Clear
8:53 AM 69.1 °F - 55.9 °F 63% 29.75 in 10.0 mi SE 10.4 mph - N/A   Clear
9:53 AM 75.0 °F - 55.0 °F 50% 29.74 in 10.0 mi SE 9.2 mph - N/A   Clear
10:53 AM 81.0 °F 80.7 °F 55.0 °F 41% 29.75 in 10.0 mi South 8.1 mph - N/A   Clear
11:53 AM 84.9 °F - 46.0 °F 26% 29.72 in 10.0 mi SW 8.1 mph - N/A   Clear
12:53 PM 86.0 °F - 52.0 °F 31% 29.71 in 10.0 mi Variable 5.8 mph - N/A   Clear
1:53 PM 89.1 °F - 46.9 °F 23% 29.68 in 10.0 mi WNW 8.1 mph - N/A   Clear
2:53 PM 91.9 °F - 45.0 °F 20% 29.65 in 10.0 mi West 6.9 mph - N/A   Clear
3:53 PM 93.0 °F - 39.0 °F 15% 29.63 in 10.0 mi WNW 10.4 mph - N/A   Clear
4:53 PM 84.9 °F - 45.0 °F 25% 29.66 in 6.0 mi SW 19.6 mph 31.1 mph N/A   Haze
5:06 PM 86.0 °F - 44.1 °F 23% 29.81 in 5.0 mi WSW 21.9 mph 35.7 mph N/A   Haze
5:53 PM 82.0 °F - 45.0 °F 27% 29.66 in 10.0 mi WSW 20.7 mph 34.5 mph N/A   Clear
6:53 PM 79.0 °F - 46.9 °F 32% 29.65 in 10.0 mi West 11.5 mph - N/A   Partly Cloudy
7:53 PM 78.1 °F - 46.9 °F 33% 29.66 in 10.0 mi ESE 6.9 mph - N/A   Clear
8:53 PM 73.0 °F - 51.1 °F 46% 29.68 in 10.0 mi East 8.1 mph - N/A   Clear
9:53 PM 70.0 °F - 54.0 °F 57% 29.69 in 10.0 mi SE 13.8 mph - N/A   Clear
10:53 PM 70.0 °F - 53.1 °F 55% 29.67 in 10.0 mi ESE 10.4 mph - N/A   Scattered Clouds
11:53 PM 68.0 °F - 53.1 °F 59% 29.65 in 10.0 mi ESE 9.2 mph - N/A   Partly Cloudy